{"data":{"norad_id":62641,"intl_designator":"2025-009AJ","name":"FLOCK 4G-27","alt_names":[],"object_type":"PAYLOAD","status":"ACTIVE","operator":null,"country":"US","launch_date":"2025-01-14","launch_site_code":"AFWTR","launch_vehicle":null,"mission":null,"orbit_class":"UNKNOWN","rcs_meters":null,"size_class":null,"mass_kg":null,"dimensions":null,"purposes":["earth_obs"],"wikipedia_slug":null,"has_3d_model":false,"image_url":null,"decayed_at":null,"tle_current":{"epoch":"2026-05-25T04:10:55.339104Z","epoch_age_seconds":56020,"freshness":"FRESH","line1":"1 62641U 25009AJ  26145.17425161  .00010654  00000+0  38334-3 0  9999","line2":"2 62641  97.3934 226.7100 0003056  63.7769 296.3785 15.28780832 75383","mean_motion":15.28780832,"eccentricity":0.0003056,"inclination_deg":97.3934,"raan_deg":226.71,"arg_perigee_deg":63.7769,"mean_anomaly_deg":296.3785,"bstar":0.00038334,"rev_number":7538,"period_min":94.192703745255,"perigee_km":477.36004655341,"apogee_km":481.55140722809,"semimajor_km":6857.5927268908,"source":"CELESTRAK","updated_at":"2026-05-25T13:38:13.338810Z"}}}